Time,TemperatureF,DewpointF,PressureIn,WindDirection,WindDirectionDegrees,WindSpeedMPH,WindSpeedGustMPH,Humidity,HourlyPrecipIn,Conditions,Clouds,dailyrainin,SoftwareType,DateUTC
2013-01-05 00:01:00,33.1,25.4,30.19,South,180,5.6,8.1,73,0.00,,,0.00,WUHU216HW,2013-01-05 06:01:00,
2013-01-05 00:06:00,33.1,25.4,30.19,SW,225,7.6,7.6,73,0.00,,,0.00,WUHU216HW,2013-01-05 06:06:00,
2013-01-05 00:11:00,33.1,25.4,30.19,SSW,203,5.4,8.7,73,0.00,,,0.00,WUHU216HW,2013-01-05 06:11:00,
2013-01-05 00:16:00,32.8,25.0,30.19,SSW,203,6.5,8.7,73,0.00,,,0.00,WUHU216HW,2013-01-05 06:16:00,
2013-01-05 00:21:00,32.8,25.0,30.19,South,180,6.3,7.8,73,0.00,,,0.00,WUHU216HW,2013-01-05 06:21:00,
2013-01-05 00:26:00,32.8,25.0,30.18,South,180,5.4,7.8,73,0.00,,,0.00,WUHU216HW,2013-01-05 06:26:00,
2013-01-05 00:31:00,32.6,24.8,30.19,SW,225,6.3,7.8,73,0.00,,,0.00,WUHU216HW,2013-01-05 06:31:00,
2013-01-05 00:36:00,32.8,25.0,30.18,SSW,203,5.6,6.3,73,0.00,,,0.00,WUHU216HW,2013-01-05 06:36:00,
2013-01-05 00:41:00,32.4,25.0,30.18,SSW,203,7.4,8.3,74,0.00,,,0.00,WUHU216HW,2013-01-05 06:41:00,
2013-01-05 00:46:00,32.6,24.8,30.18,SSW,203,7.2,8.3,73,0.00,,,0.00,WUHU216HW,2013-01-05 06:46:00,
2013-01-05 00:51:00,32.6,24.8,30.18,SSW,203,4.7,7.2,73,0.00,,,0.00,WUHU216HW,2013-01-05 06:51:00,
2013-01-05 00:56:00,32.4,25.0,30.18,SSW,203,7.4,7.4,74,0.00,,,0.00,WUHU216HW,2013-01-05 06:56:00,
2013-01-05 01:01:00,32.2,25.2,30.18,South,180,6.7,7.4,75,0.00,,,0.00,WUHU216HW,2013-01-05 07:01:00,
2013-01-05 01:06:00,32.0,25.0,30.18,SSW,203,4.0,7.4,75,0.00,,,0.00,WUHU216HW,2013-01-05 07:06:00,
2013-01-05 01:11:00,32.0,25.0,30.18,SSW,203,7.8,7.8,75,0.00,,,0.00,WUHU216HW,2013-01-05 07:11:00,
2013-01-05 01:16:00,32.0,25.0,30.18,South,180,4.0,7.8,75,0.00,,,0.00,WUHU216HW,2013-01-05 07:16:00,
2013-01-05 01:21:00,31.9,25.2,30.17,SSW,203,4.5,6.3,76,0.00,,,0.00,WUHU216HW,2013-01-05 07:21:00,
2013-01-05 01:26:00,31.7,25.0,30.17,SSW,203,3.6,6.5,76,0.00,,,0.00,WUHU216HW,2013-01-05 07:26:00,
2013-01-05 01:31:00,31.7,25.0,30.17,SSW,203,5.1,6.5,76,0.00,,,0.00,WUHU216HW,2013-01-05 07:31:00,
2013-01-05 01:36:00,31.5,24.9,30.17,SSW,203,4.7,6.0,76,0.00,,,0.00,WUHU216HW,2013-01-05 07:36:00,
2013-01-05 01:41:00,31.3,24.7,30.17,SSW,203,5.1,6.0,76,0.00,,,0.00,WUHU216HW,2013-01-05 07:41:00,
2013-01-05 01:46:00,31.3,24.7,30.17,South,180,4.5,6.9,76,0.00,,,0.00,WUHU216HW,2013-01-05 07:46:00,
2013-01-05 01:51:00,31.1,24.5,30.17,SSW,203,4.7,6.9,76,0.00,,,0.00,WUHU216HW,2013-01-05 07:51:00,
2013-01-05 01:56:00,31.1,24.8,30.17,SSW,203,4.7,5.1,77,0.00,,,0.00,WUHU216HW,2013-01-05 07:56:00,
2013-01-05 02:01:00,31.1,24.8,30.17,SSW,203,5.4,5.4,77,0.00,,,0.00,WUHU216HW,2013-01-05 08:01:00,
2013-01-05 02:06:00,31.0,24.6,30.17,South,180,5.1,7.6,77,0.00,,,0.00,WUHU216HW,2013-01-05 08:06:00,
2013-01-05 02:11:00,31.1,24.8,30.17,SSW,203,4.7,7.6,77,0.00,,,0.00,WUHU216HW,2013-01-05 08:11:00,
2013-01-05 02:16:00,31.1,24.8,30.17,SW,225,4.7,5.6,77,0.00,,,0.00,WUHU216HW,2013-01-05 08:16:00,
2013-01-05 02:21:00,31.1,24.8,30.17,SSW,203,6.3,6.3,77,0.00,,,0.00,WUHU216HW,2013-01-05 08:21:00,
2013-01-05 02:26:00,31.3,24.7,30.17,SSW,203,3.6,6.3,76,0.00,,,0.00,WUHU216HW,2013-01-05 08:26:00,
2013-01-05 02:31:00,31.0,24.6,30.17,SSW,203,4.7,4.7,77,0.00,,,0.00,WUHU216HW,2013-01-05 08:31:00,
2013-01-05 02:36:00,31.0,24.6,30.17,South,180,4.3,4.7,77,0.00,,,0.00,WUHU216HW,2013-01-05 08:36:00,
2013-01-05 02:41:00,31.0,24.6,30.17,SSW,203,4.9,6.3,77,0.00,,,0.00,WUHU216HW,2013-01-05 08:41:00,
2013-01-05 02:46:00,31.1,24.8,30.17,SSW,203,5.8,6.3,77,0.00,,,0.00,WUHU216HW,2013-01-05 08:46:00,
2013-01-05 02:51:00,31.3,24.9,30.17,SSW,203,3.8,6.3,77,0.00,,,0.00,WUHU216HW,2013-01-05 08:51:00,
2013-01-05 02:56:00,31.3,24.7,30.17,SSW,203,3.8,5.8,76,0.00,,,0.00,WUHU216HW,2013-01-05 08:56:00,
2013-01-05 03:01:00,31.3,24.9,30.17,SSW,203,5.8,5.8,77,0.00,,,0.00,WUHU216HW,2013-01-05 09:01:00,
2013-01-05 03:06:00,31.3,24.9,30.17,SSW,203,4.0,5.8,77,0.00,,,0.00,WUHU216HW,2013-01-05 09:06:00,
2013-01-05 03:11:00,31.3,24.9,30.17,SW,225,2.5,5.8,77,0.00,,,0.00,WUHU216HW,2013-01-05 09:11:00,
2013-01-05 03:16:00,31.5,25.1,30.17,SSW,203,4.0,5.1,77,0.00,,,0.00,WUHU216HW,2013-01-05 09:16:00,
2013-01-05 03:21:00,31.5,24.9,30.17,SSW,203,3.8,5.1,76,0.00,,,0.00,WUHU216HW,2013-01-05 09:21:00,
2013-01-05 03:26:00,31.5,24.9,30.17,SSW,203,4.7,4.9,76,0.00,,,0.00,WUHU216HW,2013-01-05 09:26:00,
2013-01-05 03:31:00,31.5,24.9,30.17,SW,225,6.0,6.0,76,0.00,,,0.00,WUHU216HW,2013-01-05 09:31:00,
2013-01-05 03:36:00,31.3,24.7,30.16,SSW,203,4.5,6.9,76,0.00,,,0.00,WUHU216HW,2013-01-05 09:36:00,
2013-01-05 03:41:00,31.3,24.9,30.17,SSW,203,4.9,6.9,77,0.00,,,0.00,WUHU216HW,2013-01-05 09:41:00,
2013-01-05 03:46:00,31.1,24.8,30.17,SSW,203,6.5,6.5,77,0.00,,,0.00,WUHU216HW,2013-01-05 09:46:00,
2013-01-05 03:51:00,31.1,24.8,30.17,SSW,203,4.0,6.5,77,0.00,,,0.00,WUHU216HW,2013-01-05 09:51:00,
2013-01-05 03:56:00,31.1,24.8,30.16,SSW,203,4.7,6.7,77,0.00,,,0.00,WUHU216HW,2013-01-05 09:56:00,
2013-01-05 04:01:00,31.0,24.6,30.16,SSW,203,4.7,6.7,77,0.00,,,0.00,WUHU216HW,2013-01-05 10:01:00,
2013-01-05 04:06:00,31.0,24.6,30.16,SSW,203,3.8,6.9,77,0.00,,,0.00,WUHU216HW,2013-01-05 10:06:00,
2013-01-05 04:11:00,31.0,24.9,30.15,SSW,203,5.1,6.9,78,0.00,,,0.00,WUHU216HW,2013-01-05 10:11:00,
2013-01-05 04:16:00,31.0,24.9,30.15,South,180,5.4,5.6,78,0.00,,,0.00,WUHU216HW,2013-01-05 10:16:00,
2013-01-05 04:21:00,30.8,24.8,30.16,South,180,5.4,8.1,78,0.00,,,0.00,WUHU216HW,2013-01-05 10:21:00,
2013-01-05 04:26:00,30.6,24.6,30.15,SW,225,5.4,8.1,78,0.00,,,0.00,WUHU216HW,2013-01-05 10:26:00,
2013-01-05 04:31:00,30.8,24.8,30.15,SSW,203,4.9,5.8,78,0.00,,,0.00,WUHU216HW,2013-01-05 10:31:00,
2013-01-05 04:36:00,31.0,24.9,30.15,SSW,203,5.4,5.4,78,0.00,,,0.00,WUHU216HW,2013-01-05 10:36:00,
2013-01-05 04:41:00,31.1,25.1,30.15,SW,225,5.8,5.8,78,0.00,,,0.00,WUHU216HW,2013-01-05 10:41:00,
2013-01-05 04:46:00,31.1,25.1,30.15,SSW,203,4.7,5.8,78,0.00,,,0.00,WUHU216HW,2013-01-05 10:46:00,
2013-01-05 04:51:00,31.3,25.3,30.15,SSW,203,4.5,5.8,78,0.00,,,0.00,WUHU216HW,2013-01-05 10:51:00,
2013-01-05 04:56:00,31.5,25.5,30.15,South,180,6.0,6.0,78,0.00,,,0.00,WUHU216HW,2013-01-05 10:56:00,
2013-01-05 05:01:00,31.7,25.3,30.15,SSW,203,6.3,6.3,77,0.00,,,0.00,WUHU216HW,2013-01-05 11:01:00,
2013-01-05 05:06:00,32.0,25.7,30.15,South,180,6.7,6.7,77,0.00,,,0.00,WUHU216HW,2013-01-05 11:06:00,
2013-01-05 05:11:00,32.4,25.7,30.15,SW,225,6.3,7.6,76,0.00,,,0.00,WUHU216HW,2013-01-05 11:11:00,
2013-01-05 05:16:00,32.4,25.7,30.15,SSW,203,8.3,8.3,76,0.00,,,0.00,WUHU216HW,2013-01-05 11:16:00,
2013-01-05 05:21:00,32.8,26.0,30.15,SSW,203,6.7,8.3,76,0.00,,,0.00,WUHU216HW,2013-01-05 11:21:00,
2013-01-05 05:26:00,32.8,25.7,30.15,SSW,203,6.9,8.3,75,0.00,,,0.00,WUHU216HW,2013-01-05 11:26:00,
2013-01-05 05:31:00,33.1,26.0,30.15,SW,225,5.8,6.9,75,0.00,,,0.00,WUHU216HW,2013-01-05 11:31:00,
2013-01-05 05:36:00,33.1,26.0,30.15,SSW,203,7.4,11.4,75,0.00,,,0.00,WUHU216HW,2013-01-05 11:36:00,
2013-01-05 05:41:00,33.3,26.8,30.15,WSW,248,8.1,11.4,77,0.00,,,0.00,WUHU216HW,2013-01-05 11:41:00,
2013-01-05 05:46:00,33.5,27.6,30.15,SSW,203,9.2,9.8,79,0.00,,,0.00,WUHU216HW,2013-01-05 11:46:00,
2013-01-05 05:51:00,33.5,27.9,30.15,SSW,203,7.8,9.8,80,0.00,,,0.00,WUHU216HW,2013-01-05 11:51:00,
2013-01-05 05:56:00,33.5,27.9,30.15,SSW,203,10.1,10.1,80,0.00,,,0.00,WUHU216HW,2013-01-05 11:56:00,
2013-01-05 06:01:00,34.0,28.1,30.15,SSW,203,6.3,10.3,79,0.00,,,0.00,WUHU216HW,2013-01-05 12:01:00,
2013-01-05 06:06:00,34.2,28.3,30.15,SW,225,9.4,10.3,79,0.00,,,0.00,WUHU216HW,2013-01-05 12:06:00,
2013-01-05 06:11:00,34.4,28.8,30.15,SW,225,9.4,10.3,80,0.00,,,0.00,WUHU216HW,2013-01-05 12:11:00,
2013-01-05 06:16:00,34.4,29.3,30.15,SSW,203,12.8,12.8,82,0.00,,,0.00,WUHU216HW,2013-01-05 12:16:00,
2013-01-05 06:21:00,34.6,29.5,30.15,SSW,203,8.7,12.8,82,0.00,,,0.00,WUHU216HW,2013-01-05 12:21:00,
2013-01-05 06:26:00,34.6,30.2,30.15,SSW,203,8.9,12.8,84,0.00,,,0.00,WUHU216HW,2013-01-05 12:26:00,
2013-01-05 06:31:00,34.7,30.3,30.15,SW,225,11.6,11.6,84,0.00,,,0.00,WUHU216HW,2013-01-05 12:31:00,
2013-01-05 06:36:00,34.7,30.3,30.15,SSW,203,10.3,11.6,84,0.00,,,0.00,WUHU216HW,2013-01-05 12:36:00,
2013-01-05 06:41:00,34.7,30.3,30.15,South,180,9.2,11.6,84,0.00,,,0.00,WUHU216HW,2013-01-05 12:41:00,
2013-01-05 06:46:00,34.4,30.0,30.15,SSW,203,8.3,11.0,84,0.00,,,0.00,WUHU216HW,2013-01-05 12:46:00,
2013-01-05 06:51:00,34.2,29.8,30.15,South,180,10.5,11.0,84,0.00,,,0.00,WUHU216HW,2013-01-05 12:51:00,
2013-01-05 06:56:00,34.2,29.8,30.15,SSW,203,6.5,10.5,84,0.00,,,0.00,WUHU216HW,2013-01-05 12:56:00,
2013-01-05 07:01:00,34.0,29.6,30.15,South,180,8.3,8.7,84,0.00,,,0.00,WUHU216HW,2013-01-05 13:01:00,
2013-01-05 07:06:00,34.0,29.6,30.15,SSW,203,6.9,8.7,84,0.00,,,0.00,WUHU216HW,2013-01-05 13:06:00,
2013-01-05 07:11:00,34.0,29.6,30.15,SSE,158,6.3,7.4,84,0.00,,,0.00,WUHU216HW,2013-01-05 13:11:00,
2013-01-05 07:16:00,34.2,29.8,30.16,SSW,203,5.8,6.9,84,0.00,,,0.00,WUHU216HW,2013-01-05 13:16:00,
2013-01-05 07:21:00,34.2,29.8,30.16,SSW,203,9.4,9.4,84,0.00,,,0.00,WUHU216HW,2013-01-05 13:21:00,
2013-01-05 07:26:00,34.2,29.8,30.16,SSW,203,6.0,9.4,84,0.00,,,0.00,WUHU216HW,2013-01-05 13:26:00,
2013-01-05 07:31:00,34.0,29.6,30.16,SSW,203,8.9,8.9,84,0.00,,,0.00,WUHU216HW,2013-01-05 13:31:00,
2013-01-05 07:36:00,34.2,30.1,30.16,South,180,8.1,8.9,85,0.00,,,0.00,WUHU216HW,2013-01-05 13:36:00,
2013-01-05 07:41:00,34.2,29.8,30.16,SSW,203,6.3,8.1,84,0.00,,,0.00,WUHU216HW,2013-01-05 13:41:00,
2013-01-05 07:46:00,34.4,30.0,30.15,South,180,6.9,7.6,84,0.00,,,0.00,WUHU216HW,2013-01-05 13:46:00,
2013-01-05 07:51:00,34.4,30.2,30.16,SSW,203,5.8,6.9,85,0.00,,,0.00,WUHU216HW,2013-01-05 13:51:00,
2013-01-05 07:56:00,34.4,30.2,30.16,South,180,6.3,8.5,85,0.00,,,0.00,WUHU216HW,2013-01-05 13:56:00,
2013-01-05 08:01:00,34.2,29.8,30.15,SSW,203,7.2,8.5,84,0.00,,,0.00,WUHU216HW,2013-01-05 14:01:00,
2013-01-05 08:06:00,34.2,29.8,30.15,South,180,6.9,7.2,84,0.00,,,0.00,WUHU216HW,2013-01-05 14:06:00,
2013-01-05 08:11:00,34.2,29.8,30.15,South,180,6.7,6.9,84,0.00,,,0.00,WUHU216HW,2013-01-05 14:11:00,
2013-01-05 08:16:00,34.4,30.0,30.15,South,180,5.6,6.9,84,0.00,,,0.00,WUHU216HW,2013-01-05 14:16:00,
2013-01-05 08:21:00,34.6,30.4,30.15,South,180,6.0,6.7,85,0.00,,,0.00,WUHU216HW,2013-01-05 14:21:00,
2013-01-05 08:26:00,34.7,30.6,30.15,South,180,6.0,6.3,85,0.00,,,0.00,WUHU216HW,2013-01-05 14:26:00,
2013-01-05 08:31:00,34.9,30.5,30.15,SSW,203,6.7,8.5,84,0.00,,,0.00,WUHU216HW,2013-01-05 14:31:00,
2013-01-05 08:36:00,35.1,30.7,30.15,South,180,7.4,8.5,84,0.00,,,0.00,WUHU216HW,2013-01-05 14:36:00,
2013-01-05 08:41:00,35.3,30.9,30.15,South,180,7.6,8.3,84,0.00,,,0.00,WUHU216HW,2013-01-05 14:41:00,
2013-01-05 08:46:00,35.6,31.2,30.14,SSE,158,5.4,8.3,84,0.00,,,0.00,WUHU216HW,2013-01-05 14:46:00,
2013-01-05 08:51:00,35.6,31.2,30.14,SSW,203,7.6,8.1,84,0.00,,,0.00,WUHU216HW,2013-01-05 14:51:00,
2013-01-05 08:56:00,35.8,31.2,30.14,South,180,7.8,9.6,83,0.00,,,0.00,WUHU216HW,2013-01-05 14:56:00,
2013-01-05 09:01:00,36.0,31.3,30.14,South,180,6.3,9.6,83,0.00,,,0.00,WUHU216HW,2013-01-05 15:01:00,
2013-01-05 09:06:00,36.2,31.1,30.14,South,180,5.8,8.9,82,0.00,,,0.00,WUHU216HW,2013-01-05 15:06:00,
2013-01-05 09:11:00,36.4,31.3,30.14,SSW,203,6.3,8.9,82,0.00,,,0.00,WUHU216HW,2013-01-05 15:11:00,
2013-01-05 09:16:00,36.5,31.2,30.14,SSW,203,7.6,7.8,81,0.00,,,0.00,WUHU216HW,2013-01-05 15:16:00,
2013-01-05 09:21:00,36.7,31.1,30.14,SSW,203,6.5,7.6,80,0.00,,,0.00,WUHU216HW,2013-01-05 15:21:00,
2013-01-05 09:26:00,36.9,31.3,30.14,South,180,9.8,10.3,80,0.00,,,0.00,WUHU216HW,2013-01-05 15:26:00,
2013-01-05 09:31:00,36.9,31.3,30.14,South,180,7.6,10.3,80,0.00,,,0.00,WUHU216HW,2013-01-05 15:31:00,
2013-01-05 09:36:00,37.1,31.5,30.13,SSW,203,8.3,10.7,80,0.00,,,0.00,WUHU216HW,2013-01-05 15:36:00,
2013-01-05 09:41:00,37.4,31.9,30.13,SSW,203,10.5,10.7,80,0.00,,,0.00,WUHU216HW,2013-01-05 15:41:00,
2013-01-05 09:46:00,37.4,31.9,30.14,SSW,203,14.8,14.8,80,0.00,,,0.00,WUHU216HW,2013-01-05 15:46:00,
2013-01-05 09:51:00,37.6,32.0,30.14,SSW,203,12.1,14.8,80,0.00,,,0.00,WUHU216HW,2013-01-05 15:51:00,
2013-01-05 09:56:00,37.8,32.2,30.13,South,180,14.3,14.3,80,0.00,,,0.00,WUHU216HW,2013-01-05 15:56:00,
2013-01-05 10:01:00,38.3,32.8,30.13,South,180,14.1,14.3,80,0.00,,,0.00,WUHU216HW,2013-01-05 16:01:00,
2013-01-05 10:06:00,38.2,32.6,30.14,South,180,5.8,15.2,80,0.00,,,0.00,WUHU216HW,2013-01-05 16:06:00,
2013-01-05 10:11:00,38.0,32.4,30.14,SSW,203,7.6,15.2,80,0.00,,,0.00,WUHU216HW,2013-01-05 16:11:00,
2013-01-05 10:16:00,37.4,31.9,30.14,SW,225,5.8,10.1,80,0.00,,,0.00,WUHU216HW,2013-01-05 16:16:00,
2013-01-05 10:21:00,37.1,31.8,30.14,SSW,203,6.9,9.4,81,0.00,,,0.00,WUHU216HW,2013-01-05 16:21:00,
2013-01-05 10:26:00,36.9,31.9,30.15,SW,225,4.9,7.8,82,0.00,,,0.00,WUHU216HW,2013-01-05 16:26:00,
2013-01-05 10:31:00,36.7,31.7,30.14,SW,225,7.4,7.8,82,0.00,,,0.00,WUHU216HW,2013-01-05 16:31:00,
2013-01-05 10:36:00,36.7,31.7,30.14,SSW,203,5.1,7.4,82,0.00,,,0.00,WUHU216HW,2013-01-05 16:36:00,
2013-01-05 10:41:00,36.9,31.9,30.14,SSW,203,7.6,8.9,82,0.00,,,0.00,WUHU216HW,2013-01-05 16:41:00,
2013-01-05 10:46:00,36.9,31.9,30.14,SSW,203,8.5,8.9,82,0.00,,,0.00,WUHU216HW,2013-01-05 16:46:00,
2013-01-05 10:51:00,36.9,31.9,30.13,WSW,248,7.6,8.5,82,0.00,,,0.00,WUHU216HW,2013-01-05 16:51:00,
2013-01-05 10:56:00,36.7,31.7,30.13,SSW,203,6.3,7.6,82,0.00,,,0.00,WUHU216HW,2013-01-05 16:56:00,
2013-01-05 11:01:00,36.7,31.7,30.13,SSW,203,6.9,7.6,82,0.00,,,0.00,WUHU216HW,2013-01-05 17:01:00,
2013-01-05 11:06:00,37.1,32.0,30.13,South,180,8.1,8.1,82,0.00,,,0.00,WUHU216HW,2013-01-05 17:06:00,
2013-01-05 11:11:00,37.1,31.8,30.12,SSW,203,9.2,9.2,81,0.00,,,0.00,WUHU216HW,2013-01-05 17:11:00,
2013-01-05 11:16:00,37.1,31.8,30.12,SSW,203,6.9,9.2,81,0.00,,,0.00,WUHU216HW,2013-01-05 17:16:00,
2013-01-05 11:21:00,37.1,31.8,30.12,SSW,203,6.7,9.2,81,0.00,,,0.00,WUHU216HW,2013-01-05 17:21:00,
2013-01-05 11:26:00,37.1,32.0,30.12,SSW,203,6.0,8.1,82,0.00,,,0.00,WUHU216HW,2013-01-05 17:26:00,
2013-01-05 11:31:00,37.1,32.0,30.12,SSW,203,8.3,8.7,82,0.00,,,0.00,WUHU216HW,2013-01-05 17:31:00,
2013-01-05 11:36:00,37.1,32.0,30.11,South,180,6.5,8.7,82,0.00,,,0.00,WUHU216HW,2013-01-05 17:36:00,
2013-01-05 11:41:00,37.1,32.0,30.11,SSW,203,4.7,9.8,82,0.00,,,0.00,WUHU216HW,2013-01-05 17:41:00,
2013-01-05 11:46:00,37.3,32.2,30.11,SSW,203,6.5,9.8,82,0.00,,,0.00,WUHU216HW,2013-01-05 17:46:00,
2013-01-05 11:51:00,37.3,32.0,30.10,SSW,203,9.8,10.5,81,0.00,,,0.00,WUHU216HW,2013-01-05 17:51:00,
2013-01-05 11:56:00,37.3,32.2,30.10,SSW,203,9.8,10.5,82,0.00,,,0.00,WUHU216HW,2013-01-05 17:56:00,
2013-01-05 12:01:00,37.4,32.1,30.09,South,180,10.1,10.1,81,0.00,,,0.00,WUHU216HW,2013-01-05 18:01:00,
2013-01-05 12:06:00,37.4,32.1,30.09,SSW,203,10.5,10.5,81,0.00,,,0.00,WUHU216HW,2013-01-05 18:06:00,
2013-01-05 12:11:00,37.4,32.1,30.09,SSW,203,7.2,11.0,81,0.00,,,0.00,WUHU216HW,2013-01-05 18:11:00,
2013-01-05 12:16:00,37.4,32.1,30.09,SSW,203,8.5,11.0,81,0.00,,,0.00,WUHU216HW,2013-01-05 18:16:00,
2013-01-05 12:21:00,38.0,32.7,30.08,SSW,203,8.7,9.6,81,0.00,,,0.00,WUHU216HW,2013-01-05 18:21:00,
2013-01-05 12:26:00,38.2,32.9,30.08,SSW,203,8.3,13.2,81,0.00,,,0.00,WUHU216HW,2013-01-05 18:26:00,
2013-01-05 12:31:00,38.5,32.9,30.08,SSW,203,10.1,13.2,80,0.00,,,0.00,WUHU216HW,2013-01-05 18:31:00,
2013-01-05 12:36:00,38.7,33.1,30.07,SSW,203,6.3,10.1,80,0.00,,,0.00,WUHU216HW,2013-01-05 18:36:00,
2013-01-05 12:41:00,39.1,33.5,30.07,SSW,203,7.6,8.9,80,0.00,,,0.00,WUHU216HW,2013-01-05 18:41:00,
2013-01-05 12:46:00,39.2,33.3,30.07,South,180,8.9,8.9,79,0.00,,,0.00,WUHU216HW,2013-01-05 18:46:00,
2013-01-05 12:51:00,39.4,33.5,30.06,SSW,203,8.5,11.6,79,0.00,,,0.00,WUHU216HW,2013-01-05 18:51:00,
2013-01-05 12:56:00,39.8,33.9,30.06,SSW,203,10.1,11.6,79,0.00,,,0.00,WUHU216HW,2013-01-05 18:56:00,
2013-01-05 13:01:00,40.3,34.3,30.05,SW,225,8.5,11.2,79,0.00,,,0.00,WUHU216HW,2013-01-05 19:01:00,
2013-01-05 13:06:00,40.3,34.3,30.05,SW,225,6.0,8.5,79,0.00,,,0.00,WUHU216HW,2013-01-05 19:06:00,
2013-01-05 13:11:00,40.3,34.3,30.05,SW,225,8.3,9.4,79,0.00,,,0.00,WUHU216HW,2013-01-05 19:11:00,
2013-01-05 13:16:00,41.4,34.7,30.04,South,180,4.7,9.4,77,0.00,,,0.00,WUHU216HW,2013-01-05 19:16:00,
2013-01-05 13:21:00,41.4,34.4,30.04,SW,225,8.5,10.3,76,0.00,,,0.00,WUHU216HW,2013-01-05 19:21:00,
2013-01-05 13:26:00,40.9,34.1,30.03,South,180,10.5,12.8,77,0.00,,,0.00,WUHU216HW,2013-01-05 19:26:00,
2013-01-05 13:31:00,40.9,34.1,30.03,SSW,203,7.4,12.8,77,0.00,,,0.00,WUHU216HW,2013-01-05 19:31:00,
2013-01-05 13:36:00,41.0,34.3,30.02,South,180,10.5,10.5,77,0.00,,,0.00,WUHU216HW,2013-01-05 19:36:00,
2013-01-05 13:41:00,41.4,34.7,30.02,SSW,203,9.2,10.5,77,0.00,,,0.00,WUHU216HW,2013-01-05 19:41:00,
2013-01-05 13:46:00,41.6,34.6,30.02,SW,225,8.3,9.2,76,0.00,,,0.00,WUHU216HW,2013-01-05 19:46:00,
2013-01-05 13:51:00,41.8,34.0,30.03,SSW,203,9.4,12.5,74,0.00,,,0.00,WUHU216HW,2013-01-05 19:51:00,
2013-01-05 13:56:00,40.7,33.9,30.03,South,180,12.8,12.8,77,0.00,,,0.00,WUHU216HW,2013-01-05 19:56:00,
2013-01-05 14:01:00,40.5,33.9,30.03,SW,225,7.2,12.8,77,0.00,,,0.00,WUHU216HW,2013-01-05 20:01:00,
2013-01-05 14:06:00,40.7,33.9,30.02,WSW,248,4.7,12.8,77,0.00,,,0.00,WUHU216HW,2013-01-05 20:06:00,
2013-01-05 14:11:00,40.7,33.9,30.02,SSW,203,8.5,8.5,77,0.00,,,0.00,WUHU216HW,2013-01-05 20:11:00,
2013-01-05 14:16:00,40.7,33.9,30.02,SSW,203,9.2,11.4,77,0.00,,,0.00,WUHU216HW,2013-01-05 20:16:00,
2013-01-05 14:21:00,40.7,33.9,30.02,SSW,203,7.6,11.4,77,0.00,,,0.00,WUHU216HW,2013-01-05 20:21:00,
2013-01-05 14:26:00,40.7,33.9,30.01,SSW,203,8.3,9.2,77,0.00,,,0.00,WUHU216HW,2013-01-05 20:26:00,
2013-01-05 14:31:00,40.9,34.5,30.01,WSW,248,7.2,8.3,78,0.00,,,0.00,WUHU216HW,2013-01-05 20:31:00,
2013-01-05 14:36:00,40.7,33.9,30.01,SSW,203,8.1,11.2,77,0.00,,,0.00,WUHU216HW,2013-01-05 20:36:00,
2013-01-05 14:41:00,40.7,34.3,30.02,South,180,6.3,11.2,78,0.00,,,0.00,WUHU216HW,2013-01-05 20:41:00,
2013-01-05 14:46:00,41.0,34.7,30.02,SSW,203,5.1,8.3,78,0.00,,,0.00,WUHU216HW,2013-01-05 20:46:00,
2013-01-05 14:51:00,41.4,34.7,30.02,SSW,203,10.5,10.5,77,0.00,,,0.00,WUHU216HW,2013-01-05 20:51:00,
2013-01-05 14:56:00,41.9,34.9,30.02,SSW,203,7.4,10.5,76,0.00,,,0.00,WUHU216HW,2013-01-05 20:56:00,
2013-01-05 15:01:00,41.8,34.4,30.03,SSW,203,4.0,10.5,75,0.00,,,0.00,WUHU216HW,2013-01-05 21:01:00,
2013-01-05 15:06:00,41.4,34.4,30.02,SW,225,5.4,6.7,76,0.00,,,0.00,WUHU216HW,2013-01-05 21:06:00,
2013-01-05 15:11:00,41.2,33.8,30.02,SW,225,7.6,7.6,75,0.00,,,0.00,WUHU216HW,2013-01-05 21:11:00,
2013-01-05 15:16:00,41.0,33.3,30.02,SSW,203,9.2,9.2,74,0.00,,,0.00,WUHU216HW,2013-01-05 21:16:00,
2013-01-05 15:21:00,41.0,33.0,30.02,SW,225,9.2,9.2,73,0.00,,,0.00,WUHU216HW,2013-01-05 21:21:00,
2013-01-05 15:26:00,41.2,32.9,30.02,South,180,8.5,10.5,72,0.00,,,0.00,WUHU216HW,2013-01-05 21:26:00,
2013-01-05 15:31:00,41.4,33.0,30.02,SSW,203,6.3,10.5,72,0.00,,,0.00,WUHU216HW,2013-01-05 21:31:00,
2013-01-05 15:36:00,41.4,33.0,30.02,South,180,8.7,8.7,72,0.00,,,0.00,WUHU216HW,2013-01-05 21:36:00,
2013-01-05 15:41:00,41.4,33.0,30.03,SSW,203,7.8,8.7,72,0.00,,,0.00,WUHU216HW,2013-01-05 21:41:00,
2013-01-05 15:46:00,41.4,33.0,30.03,SSW,203,4.0,12.1,72,0.00,,,0.00,WUHU216HW,2013-01-05 21:46:00,
2013-01-05 15:51:00,41.4,33.0,30.02,South,180,5.1,12.1,72,0.00,,,0.00,WUHU216HW,2013-01-05 21:51:00,
2013-01-05 15:56:00,41.4,33.0,30.03,WSW,248,10.5,10.5,72,0.00,,,0.00,WUHU216HW,2013-01-05 21:56:00,
2013-01-05 16:01:00,41.0,32.7,30.03,SSW,203,4.5,10.5,72,0.00,,,0.00,WUHU216HW,2013-01-05 22:01:00,
2013-01-05 16:06:00,41.2,32.9,30.03,WSW,248,3.4,10.5,72,0.00,,,0.00,WUHU216HW,2013-01-05 22:06:00,
2013-01-05 16:11:00,41.6,33.0,30.03,South,180,3.4,6.9,71,0.00,,,0.00,WUHU216HW,2013-01-05 22:11:00,
2013-01-05 16:16:00,41.8,33.1,30.04,WSW,248,6.0,6.0,71,0.00,,,0.00,WUHU216HW,2013-01-05 22:16:00,
2013-01-05 16:21:00,41.6,33.0,30.04,SW,225,6.9,9.2,71,0.00,,,0.00,WUHU216HW,2013-01-05 22:21:00,
2013-01-05 16:26:00,41.4,32.8,30.04,SW,225,6.3,9.2,71,0.00,,,0.00,WUHU216HW,2013-01-05 22:26:00,
2013-01-05 16:31:00,40.7,32.1,30.04,SW,225,5.4,6.9,71,0.00,,,0.00,WUHU216HW,2013-01-05 22:31:00,
2013-01-05 16:36:00,40.7,32.3,30.04,SSW,203,7.8,7.8,72,0.00,,,0.00,WUHU216HW,2013-01-05 22:36:00,
2013-01-05 16:41:00,40.5,32.1,30.04,SSW,203,5.1,7.8,72,0.00,,,0.00,WUHU216HW,2013-01-05 22:41:00,
2013-01-05 16:46:00,40.3,32.3,30.04,SW,225,5.4,6.9,73,0.00,,,0.00,WUHU216HW,2013-01-05 22:46:00,
2013-01-05 16:51:00,40.3,32.3,30.04,SSW,203,5.1,6.9,73,0.00,,,0.00,WUHU216HW,2013-01-05 22:51:00,
2013-01-05 16:56:00,40.5,32.5,30.04,South,180,4.5,5.8,73,0.00,,,0.00,WUHU216HW,2013-01-05 22:56:00,
2013-01-05 17:01:00,40.3,32.3,30.04,SSW,203,7.2,7.2,73,0.00,,,0.00,WUHU216HW,2013-01-05 23:01:00,
2013-01-05 17:06:00,40.0,32.3,30.04,SSW,203,5.6,9.4,74,0.00,,,0.00,WUHU216HW,2013-01-05 23:06:00,
2013-01-05 17:11:00,39.8,32.1,30.04,SSW,203,6.9,9.4,74,0.00,,,0.00,WUHU216HW,2013-01-05 23:11:00,
2013-01-05 17:16:00,39.4,32.1,30.04,SSW,203,5.1,6.9,75,0.00,,,0.00,WUHU216HW,2013-01-05 23:16:00,
2013-01-05 17:21:00,39.2,32.3,30.04,SW,225,10.1,10.1,76,0.00,,,0.00,WUHU216HW,2013-01-05 23:21:00,
2013-01-05 17:26:00,39.2,32.0,30.04,SSW,203,5.1,10.1,75,0.00,,,0.00,WUHU216HW,2013-01-05 23:26:00,
2013-01-05 17:31:00,39.1,32.1,30.04,SW,225,6.7,10.1,76,0.00,,,0.00,WUHU216HW,2013-01-05 23:31:00,
2013-01-05 17:36:00,38.9,32.3,30.04,SSW,203,8.5,8.5,77,0.00,,,0.00,WUHU216HW,2013-01-05 23:36:00,
2013-01-05 17:41:00,38.5,32.0,30.04,SSW,203,6.5,8.5,77,0.00,,,0.00,WUHU216HW,2013-01-05 23:41:00,
2013-01-05 17:46:00,38.3,31.4,30.04,SSW,203,7.6,7.6,76,0.00,,,0.00,WUHU216HW,2013-01-05 23:46:00,
2013-01-05 17:51:00,38.5,32.0,30.04,SSW,203,6.9,8.1,77,0.00,,,0.00,WUHU216HW,2013-01-05 23:51:00,
2013-01-05 17:56:00,38.2,31.6,30.04,SW,225,8.1,8.1,77,0.00,,,0.00,WUHU216HW,2013-01-05 23:56:00,
2013-01-05 18:01:00,38.3,31.4,30.04,SSW,203,5.6,8.1,76,0.00,,,0.00,WUHU216HW,2013-01-06 00:01:00,
2013-01-05 18:06:00,38.0,31.4,30.04,South,180,4.7,8.1,77,0.00,,,0.00,WUHU216HW,2013-01-06 00:06:00,
2013-01-05 18:11:00,38.0,31.4,30.04,WSW,248,4.9,6.3,77,0.00,,,0.00,WUHU216HW,2013-01-06 00:11:00,
2013-01-05 18:16:00,38.0,31.4,30.05,SSW,203,6.3,6.9,77,0.00,,,0.00,WUHU216HW,2013-01-06 00:16:00,
2013-01-05 18:21:00,37.8,31.2,30.05,SSW,203,4.0,6.9,77,0.00,,,0.00,WUHU216HW,2013-01-06 00:21:00,
2013-01-05 18:26:00,37.8,31.2,30.05,SSW,203,6.0,6.3,77,0.00,,,0.00,WUHU216HW,2013-01-06 00:26:00,
2013-01-05 18:31:00,38.0,31.4,30.05,SW,225,4.0,6.9,77,0.00,,,0.00,WUHU216HW,2013-01-06 00:31:00,
2013-01-05 18:36:00,38.2,31.6,30.05,SW,225,4.5,6.9,77,0.00,,,0.00,WUHU216HW,2013-01-06 00:36:00,
2013-01-05 18:41:00,37.8,31.2,30.05,SSW,203,4.9,6.3,77,0.00,,,0.00,WUHU216HW,2013-01-06 00:41:00,
2013-01-05 18:46:00,37.8,31.2,30.04,SSW,203,4.7,6.3,77,0.00,,,0.00,WUHU216HW,2013-01-06 00:46:00,
2013-01-05 18:51:00,37.4,30.9,30.04,SSW,203,6.7,6.7,77,0.00,,,0.00,WUHU216HW,2013-01-06 00:51:00,
2013-01-05 18:56:00,37.1,30.9,30.04,SW,225,4.5,6.7,78,0.00,,,0.00,WUHU216HW,2013-01-06 00:56:00,
2013-01-05 19:01:00,37.1,30.9,30.05,SW,225,5.4,6.5,78,0.00,,,0.00,WUHU216HW,2013-01-06 01:01:00,
2013-01-05 19:06:00,37.1,30.9,30.05,SW,225,6.3,6.5,78,0.00,,,0.00,WUHU216HW,2013-01-06 01:06:00,
2013-01-05 19:11:00,37.1,30.9,30.05,SW,225,3.4,6.3,78,0.00,,,0.00,WUHU216HW,2013-01-06 01:11:00,
2013-01-05 19:16:00,36.7,30.8,30.05,SSW,203,2.9,6.3,79,0.00,,,0.00,WUHU216HW,2013-01-06 01:16:00,
2013-01-05 19:21:00,36.7,30.8,30.05,SW,225,6.0,6.5,79,0.00,,,0.00,WUHU216HW,2013-01-06 01:21:00,
2013-01-05 19:26:00,36.7,30.8,30.05,SW,225,5.6,6.5,79,0.00,,,0.00,WUHU216HW,2013-01-06 01:26:00,
2013-01-05 19:31:00,36.7,30.8,30.05,SSW,203,4.5,6.3,79,0.00,,,0.00,WUHU216HW,2013-01-06 01:31:00,
2013-01-05 19:36:00,36.5,30.6,30.05,WSW,248,4.3,6.3,79,0.00,,,0.00,WUHU216HW,2013-01-06 01:36:00,
2013-01-05 19:41:00,36.4,30.8,30.05,WSW,248,4.0,4.7,80,0.00,,,0.00,WUHU216HW,2013-01-06 01:41:00,
2013-01-05 19:46:00,36.4,30.8,30.06,SW,225,2.5,5.1,80,0.00,,,0.00,WUHU216HW,2013-01-06 01:46:00,
2013-01-05 19:51:00,36.2,30.6,30.06,SSW,203,1.8,5.1,80,0.00,,,0.00,WUHU216HW,2013-01-06 01:51:00,
2013-01-05 19:56:00,36.2,30.6,30.06,WSW,248,2.5,4.5,80,0.00,,,0.00,WUHU216HW,2013-01-06 01:56:00,
2013-01-05 20:01:00,36.2,30.6,30.07,SSW,203,3.1,4.5,80,0.00,,,0.00,WUHU216HW,2013-01-06 02:01:00,
2013-01-05 20:06:00,36.2,30.6,30.07,WSW,248,3.1,3.8,80,0.00,,,0.00,WUHU216HW,2013-01-06 02:06:00,
2013-01-05 20:11:00,36.2,30.6,30.07,SW,225,4.7,4.7,80,0.00,,,0.00,WUHU216HW,2013-01-06 02:11:00,
2013-01-05 20:16:00,36.0,30.4,30.07,West,270,3.4,4.7,80,0.00,,,0.00,WUHU216HW,2013-01-06 02:16:00,
2013-01-05 20:21:00,36.0,30.4,30.07,SW,225,0.7,3.4,80,0.00,,,0.00,WUHU216HW,2013-01-06 02:21:00,
2013-01-05 20:26:00,35.6,30.1,30.08,SSW,203,0.4,1.1,80,0.00,,,0.00,WUHU216HW,2013-01-06 02:26:00,
2013-01-05 20:31:00,35.6,30.1,30.08,SSW,203,0.4,0.7,80,0.00,,,0.00,WUHU216HW,2013-01-06 02:31:00,
2013-01-05 20:53:00,34.4,29.3,30.07,ENE,68,2.0,2.0,82,0.00,,,0.00,WUHU216HW,2013-01-06 02:53:00,
2013-01-05 20:58:00,34.4,29.3,30.07,ENE,68,2.0,2.0,82,0.00,,,0.00,WUHU216HW,2013-01-06 02:58:00,
2013-01-05 21:03:00,34.4,29.1,30.08,NW,315,2.7,2.7,81,0.00,,,0.00,WUHU216HW,2013-01-06 03:03:00,
2013-01-05 21:08:00,34.4,29.1,30.08,NW,315,2.7,2.7,81,0.00,,,0.00,WUHU216HW,2013-01-06 03:08:00,
2013-01-05 21:30:00,34.6,27.7,30.08,WNW,293,0.4,0.4,76,0.00,,,0.00,WUHU216HW,2013-01-06 03:30:00,
2013-01-05 21:35:00,34.6,27.7,30.08,WNW,293,0.4,0.4,76,0.00,,,0.00,WUHU216HW,2013-01-06 03:35:00,
2013-01-05 22:00:00,33.5,26.6,30.08,NNW,338,0.4,0.4,76,0.00,,,0.00,WUHU216HW,2013-01-06 04:00:00,
2013-01-05 22:05:00,33.5,26.6,30.08,NNW,338,0.4,0.4,76,0.00,,,0.00,WUHU216HW,2013-01-06 04:05:00,
2013-01-05 22:30:00,32.9,26.2,30.09,North,0,4.3,4.3,76,0.00,,,0.00,WUHU216HW,2013-01-06 04:30:00,
2013-01-05 22:35:00,32.9,26.2,30.09,North,0,4.3,4.3,76,0.00,,,0.00,WUHU216HW,2013-01-06 04:35:00,
2013-01-05 23:00:00,32.2,25.5,30.09,SW,225,2.2,2.2,76,0.00,,,0.00,WUHU216HW,2013-01-06 05:00:00,
2013-01-05 23:01:00,32.2,25.5,30.09,SW,225,2.2,2.2,76,0.00,,,0.00,WUHU216HW,2013-01-06 05:01:00,
2013-01-05 23:03:00,32.2,25.5,30.09,SW,225,2.2,2.2,76,0.00,,,0.00,WUHU216HW,2013-01-06 05:03:00,
2013-01-05 23:06:00,32.2,25.5,30.09,SW,225,2.2,2.2,76,0.00,,,0.00,WUHU216HW,2013-01-06 05:06:00,
2013-01-05 23:30:00,31.1,24.5,30.10,WNW,293,0.7,0.7,76,0.00,,,0.00,WUHU216HW,2013-01-06 05:30:00,
2013-01-05 23:35:00,31.1,24.5,30.10,WNW,293,0.7,0.7,76,0.00,,,0.00,WUHU216HW,2013-01-06 05:35:00,